Wetterdaten: Mittwoch, 19.08.2015
Datum Zeit Temp. A. Feuchte A. Luftdruck Regen Wind Richtung Richtung Sonnenschein ET UV Solar Taupunkt Windchill Windben Empfang
19.08.2015 00:03 12,5 C 86 % 1016,1 hPa 0,0 l/m 0,0 km/h (0 Bft) N-NO 23 0 min 0,000 mm 0,0 UV-I 0 W/m 10,2 C 12,5 C 0,0 km/h (0 Bft) 0,00 %
19.08.2015 00:08 12,4 C 86 % 1016,2 hPa 0,0 l/m 0,0 km/h (0 Bft) N-NO 23 0 min 0,000 mm 0,0 UV-I 0 W/m 10,1 C 12,4 C 0,0 km/h (0 Bft) 0,00 %
19.08.2015 00:13 12,4 C 86 % 1016,2 hPa 0,0 l/m 0,0 km/h (0 Bft) N-NO 23 0 min 0,000 mm 0,0 UV-I 0 W/m 10,1 C 12,4 C 0,0 km/h (0 Bft) 0,00 %
19.08.2015 00:18 12,3 C 87 % 1016,1 hPa 0,0 l/m 0,0 km/h (0 Bft) O-NO 69 0 min 0,000 mm 0,0 UV-I 0 W/m 10,2 C 12,3 C 0,0 km/h (0 Bft) 0,00 %
19.08.2015 00:23 12,1 C 89 % 1016,2 hPa 0,0 l/m 0,0 km/h (0 Bft) NO 53 0 min 0,000 mm 0,0 UV-I 0 W/m 10,3 C 12,1 C 0,0 km/h (0 Bft) 0,00 %
19.08.2015 00:28 12,1 C 89 % 1016,2 hPa 0,0 l/m 0,0 km/h (0 Bft) O-NO 70 0 min 0,000 mm 0,0 UV-I 0 W/m 10,3 C 12,1 C 0,0 km/h (0 Bft) 0,00 %
19.08.2015 00:33 12,1 C 89 % 1016,2 hPa 0,0 l/m 0,0 km/h (0 Bft) NO 42 0 min 0,000 mm 0,0 UV-I 0 W/m 10,3 C 12,1 C 0,0 km/h (0 Bft) 0,00 %
19.08.2015 00:38 12,1 C 89 % 1016,2 hPa 0,0 l/m 0,0 km/h (0 Bft) NO 42 0 min 0,000 mm 0,0 UV-I 0 W/m 10,3 C 12,1 C 0,0 km/h (0 Bft) 0,00 %
19.08.2015 00:43 12,0 C 90 % 1016,2 hPa 0,0 l/m 0,0 km/h (0 Bft) NO 42 0 min 0,000 mm 0,0 UV-I 0 W/m 10,4 C 12,0 C 0,0 km/h (0 Bft) 0,00 %
19.08.2015 00:48 11,9 C 89 % 1016,1 hPa 0,0 l/m 0,0 km/h (0 Bft) NO 42 0 min 0,000 mm 0,0 UV-I 0 W/m 10,1 C 11,9 C 0,0 km/h (0 Bft) 0,00 %
19.08.2015 00:53 11,8 C 90 % 1016,4 hPa 0,0 l/m 0,0 km/h (0 Bft) NO 42 0 min 0,000 mm 0,0 UV-I 0 W/m 10,2 C 11,8 C 0,0 km/h (0 Bft) 0,00 %
19.08.2015 00:58 11,7 C 90 % 1016,2 hPa 0,0 l/m 0,0 km/h (0 Bft) NO 42 0 min 0,000 mm 0,0 UV-I 0 W/m 10,1 C 11,7 C 0,0 km/h (0 Bft) 0,00 %
19.08.2015 01:03 11,6 C 90 % 1016,2 hPa 0,0 l/m 0,0 km/h (0 Bft) NO 42 0 min 0,000 mm 0,0 UV-I 0 W/m 10,0 C 11,6 C 0,0 km/h (0 Bft) 0,00 %
19.08.2015 01:08 11,5 C 91 % 1016,2 hPa 0,0 l/m 0,0 km/h (0 Bft) NO 42 0 min 0,000 mm 0,0 UV-I 0 W/m 10,1 C 11,5 C 0,0 km/h (0 Bft) 0,00 %
19.08.2015 01:13 11,4 C 91 % 1016,4 hPa 0,0 l/m 0,0 km/h (0 Bft) NO 42 0 min 0,000 mm 0,0 UV-I 0 W/m 10,0 C 11,4 C 0,0 km/h (0 Bft) 0,00 %
19.08.2015 01:18 11,3 C 91 % 1016,3 hPa 0,0 l/m 0,0 km/h (0 Bft) NO 42 0 min 0,000 mm 0,0 UV-I 0 W/m 9,9 C 11,3 C 0,0 km/h (0 Bft) 0,00 %
19.08.2015 01:23 11,2 C 92 % 1016,3 hPa 0,0 l/m 0,0 km/h (0 Bft) NO 42 0 min 0,000 mm 0,0 UV-I 0 W/m 9,9 C 11,2 C 0,0 km/h (0 Bft) 0,00 %
19.08.2015 01:28 11,2 C 92 % 1016,2 hPa 0,0 l/m 0,0 km/h (0 Bft) NO 42 0 min 0,000 mm 0,0 UV-I 0 W/m 9,9 C 11,2 C 0,0 km/h (0 Bft) 0,00 %
19.08.2015 01:33 11,1 C 92 % 1016,2 hPa 0,0 l/m 0,0 km/h (0 Bft) NO 42 0 min 0,000 mm 0,0 UV-I 0 W/m 9,8 C 11,1 C 0,0 km/h (0 Bft) 0,00 %
19.08.2015 01:38 11,1 C 92 % 1016,2 hPa 0,0 l/m 0,0 km/h (0 Bft) NO 42 0 min 0,000 mm 0,0 UV-I 0 W/m 9,8 C 11,1 C 0,0 km/h (0 Bft) 0,00 %
19.08.2015 01:43 11,1 C 92 % 1016,1 hPa 0,0 l/m 0,0 km/h (0 Bft) NO 42 0 min 0,000 mm 0,0 UV-I 0 W/m 9,8 C 11,1 C 0,0 km/h (0 Bft) 0,00 %
19.08.2015 01:48 11,0 C 93 % 1016,2 hPa 0,0 l/m 0,0 km/h (0 Bft) NO 42 0 min 0,000 mm 0,0 UV-I 0 W/m 9,9 C 11,0 C 0,0 km/h (0 Bft) 0,00 %
19.08.2015 01:53 11,0 C 93 % 1016,2 hPa 0,0 l/m 0,0 km/h (0 Bft) NO 42 0 min 0,000 mm 0,0 UV-I 0 W/m 9,9 C 11,0 C 0,0 km/h (0 Bft) 0,00 %
19.08.2015 01:58 11,0 C 92 % 1016,2 hPa 0,0 l/m 0,0 km/h (0 Bft) NO 42 0 min 0,000 mm 0,0 UV-I 0 W/m 9,8 C 11,0 C 0,0 km/h (0 Bft) 0,00 %
19.08.2015 02:03 11,0 C 93 % 1016,4 hPa 0,0 l/m 0,0 km/h (0 Bft) NO 42 0 min 0,000 mm 0,0 UV-I 0 W/m 9,9 C 11,0 C 0,0 km/h (0 Bft) 0,00 %
19.08.2015 02:08 11,0 C 93 % 1016,4 hPa 0,0 l/m 0,0 km/h (0 Bft) NO 42 0 min 0,000 mm 0,0 UV-I 0 W/m 9,9 C 11,0 C 0,0 km/h (0 Bft) 0,00 %
19.08.2015 02:13 11,0 C 94 % 1016,5 hPa 0,0 l/m 0,0 km/h (0 Bft) NO 42 0 min 0,000 mm 0,0 UV-I 0 W/m 10,1 C 11,0 C 0,0 km/h (0 Bft) 0,00 %
19.08.2015 02:18 11,0 C 94 % 1016,2 hPa 0,0 l/m 0,0 km/h (0 Bft) NO 42 0 min 0,000 mm 0,0 UV-I 0 W/m 10,1 C 11,0 C 0,0 km/h (0 Bft) 0,00 %
19.08.2015 02:23 11,0 C 94 % 1016,5 hPa 0,0 l/m 0,0 km/h (0 Bft) NO 38 0 min 0,000 mm 0,0 UV-I 0 W/m 10,1 C 11,0 C 0,0 km/h (0 Bft) 0,00 %
19.08.2015 02:28 11,0 C 94 % 1016,4 hPa 0,0 l/m 0,0 km/h (0 Bft) NO 38 0 min 0,000 mm 0,0 UV-I 0 W/m 10,1 C 11,0 C 0,0 km/h (0 Bft) 0,00 %
19.08.2015 02:33 11,1 C 95 % 1016,4 hPa 0,0 l/m 0,0 km/h (0 Bft) NO 38 0 min 0,000 mm 0,0 UV-I 0 W/m 10,3 C 11,1 C 0,0 km/h (0 Bft) 0,00 %
19.08.2015 02:38 11,1 C 95 % 1016,3 hPa 0,0 l/m 0,0 km/h (0 Bft) NO 38 0 min 0,000 mm 0,0 UV-I 0 W/m 10,3 C 11,1 C 0,0 km/h (0 Bft) 0,00 %
19.08.2015 02:43 11,1 C 95 % 1016,4 hPa 0,0 l/m 0,0 km/h (0 Bft) NO 38 0 min 0,000 mm 0,0 UV-I 0 W/m 10,3 C 11,1 C 0,0 km/h (0 Bft) 0,00 %
19.08.2015 02:48 11,1 C 95 % 1016,3 hPa 0,0 l/m 0,0 km/h (0 Bft) NO 38 0 min 0,000 mm 0,0 UV-I 0 W/m 10,3 C 11,1 C 0,0 km/h (0 Bft) 0,00 %
19.08.2015 02:53 11,1 C 96 % 1016,4 hPa 0,0 l/m 0,0 km/h (0 Bft) NO 38 0 min 0,000 mm 0,0 UV-I 0 W/m 10,5 C 11,1 C 0,0 km/h (0 Bft) 0,00 %
19.08.2015 02:58 11,0 C 96 % 1016,3 hPa 0,0 l/m 0,0 km/h (0 Bft) NO 38 0 min 0,000 mm 0,0 UV-I 0 W/m 10,4 C 11,0 C 0,0 km/h (0 Bft) 0,00 %
19.08.2015 03:03 11,0 C 96 % 1016,4 hPa 0,0 l/m 0,0 km/h (0 Bft) NO 38 0 min 0,000 mm 0,0 UV-I 0 W/m 10,4 C 11,0 C 0,0 km/h (0 Bft) 0,00 %
19.08.2015 03:08 11,0 C 97 % 1016,2 hPa 0,0 l/m 0,0 km/h (0 Bft) NO 38 0 min 0,000 mm 0,0 UV-I 0 W/m 10,5 C 11,0 C 0,0 km/h (0 Bft) 0,00 %
19.08.2015 03:13 10,9 C 97 % 1016,4 hPa 0,0 l/m 0,0 km/h (0 Bft) NO 38 0 min 0,000 mm 0,0 UV-I 0 W/m 10,4 C 10,9 C 0,0 km/h (0 Bft) 0,00 %
19.08.2015 03:18 10,8 C 97 % 1016,5 hPa 0,0 l/m 0,0 km/h (0 Bft) NO 38 0 min 0,000 mm 0,0 UV-I 0 W/m 10,3 C 10,8 C 0,0 km/h (0 Bft) 0,00 %
19.08.2015 03:23 10,8 C 97 % 1016,4 hPa 0,0 l/m 0,0 km/h (0 Bft) NO 38 0 min 0,000 mm 0,0 UV-I 0 W/m 10,3 C 10,8 C 0,0 km/h (0 Bft) 0,00 %
19.08.2015 03:28 10,7 C 97 % 1016,4 hPa 0,0 l/m 0,0 km/h (0 Bft) NO 38 0 min 0,000 mm 0,0 UV-I 0 W/m 10,2 C 10,7 C 0,0 km/h (0 Bft) 0,00 %
19.08.2015 03:33 10,6 C 97 % 1016,4 hPa 0,0 l/m 0,0 km/h (0 Bft) NO 38 0 min 0,000 mm 0,0 UV-I 0 W/m 10,1 C 10,6 C 0,0 km/h (0 Bft) 0,00 %
19.08.2015 03:38 10,5 C 97 % 1016,3 hPa 0,0 l/m 0,0 km/h (0 Bft) NO 38 0 min 0,000 mm 0,0 UV-I 0 W/m 10,0 C 10,5 C 0,0 km/h (0 Bft) 0,00 %
19.08.2015 03:43 10,5 C 97 % 1016,4 hPa 0,0 l/m 0,0 km/h (0 Bft) NO 38 0 min 0,000 mm 0,0 UV-I 0 W/m 10,0 C 10,5 C 0,0 km/h (0 Bft) 0,00 %
19.08.2015 03:48 10,4 C 97 % 1016,3 hPa 0,0 l/m 0,0 km/h (0 Bft) NO 38 0 min 0,000 mm 0,0 UV-I 0 W/m 9,9 C 10,4 C 0,0 km/h (0 Bft) 0,00 %
19.08.2015 03:53 10,4 C 97 % 1016,4 hPa 0,0 l/m 0,0 km/h (0 Bft) NO 38 0 min 0,000 mm 0,0 UV-I 0 W/m 9,9 C 10,4 C 0,0 km/h (0 Bft) 0,00 %
19.08.2015 03:58 10,4 C 98 % 1016,4 hPa 0,0 l/m 0,0 km/h (0 Bft) NO 38 0 min 0,000 mm 0,0 UV-I 0 W/m 10,1 C 10,4 C 0,0 km/h (0 Bft) 0,00 %
19.08.2015 04:03 10,3 C 98 % 1016,3 hPa 0,0 l/m 0,0 km/h (0 Bft) NO 38 0 min 0,000 mm 0,0 UV-I 0 W/m 10,0 C 10,3 C 0,0 km/h (0 Bft) 0,00 %
19.08.2015 04:08 10,3 C 98 % 1016,3 hPa 0,0 l/m 0,0 km/h (0 Bft) NO 38 0 min 0,000 mm 0,0 UV-I 0 W/m 10,0 C 10,3 C 0,0 km/h (0 Bft) 0,00 %
19.08.2015 04:13 10,2 C 98 % 1016,3 hPa 0,0 l/m 0,0 km/h (0 Bft) NO 38 0 min 0,000 mm 0,0 UV-I 0 W/m 9,9 C 10,2 C 0,0 km/h (0 Bft) 0,00 %
19.08.2015 04:18 10,2 C 99 % 1016,3 hPa 0,0 l/m 0,0 km/h (0 Bft) NO 38 0 min 0,000 mm 0,0 UV-I 0 W/m 10,0 C 10,2 C 0,0 km/h (0 Bft) 0,00 %
19.08.2015 04:23 10,1 C 99 % 1016,3 hPa 0,0 l/m 0,0 km/h (0 Bft) NO 38 0 min 0,000 mm 0,0 UV-I 0 W/m 9,9 C 10,1 C 0,0 km/h (0 Bft) 0,00 %
19.08.2015 04:28 10,0 C 99 % 1016,2 hPa 0,0 l/m 0,0 km/h (0 Bft) NO 38 0 min 0,000 mm 0,0 UV-I 0 W/m 9,8 C 10,0 C 0,0 km/h (0 Bft) 0,00 %
19.08.2015 04:33 10,0 C 99 % 1016,2 hPa 0,0 l/m 0,0 km/h (0 Bft) NO 38 0 min 0,000 mm 0,0 UV-I 0 W/m 9,8 C 10,0 C 0,0 km/h (0 Bft) 0,00 %
19.08.2015 04:38 9,9 C 99 % 1016,1 hPa 0,0 l/m 0,0 km/h (0 Bft) NO 38 0 min 0,000 mm 0,0 UV-I 0 W/m 9,8 C 9,9 C 0,0 km/h (0 Bft) 0,00 %
19.08.2015 04:43 9,9 C 99 % 1016,3 hPa 0,0 l/m 0,0 km/h (0 Bft) NO 38 0 min 0,000 mm 0,0 UV-I 0 W/m 9,8 C 9,9 C 0,0 km/h (0 Bft) 0,00 %
19.08.2015 04:48 9,9 C 99 % 1016,1 hPa 0,0 l/m 0,0 km/h (0 Bft) NO 38 0 min 0,000 mm 0,0 UV-I 0 W/m 9,8 C 9,9 C 0,0 km/h (0 Bft) 0,00 %
19.08.2015 04:53 9,9 C 98 % 1016,1 hPa 0,0 l/m 0,0 km/h (0 Bft) NO 38 0 min 0,000 mm 0,0 UV-I 0 W/m 9,6 C 9,9 C 0,0 km/h (0 Bft) 0,00 %
19.08.2015 04:58 9,9 C 98 % 1016,1 hPa 0,0 l/m 0,0 km/h (0 Bft) NO 38 0 min 0,000 mm 0,0 UV-I 0 W/m 9,6 C 9,9 C 0,0 km/h (0 Bft) 0,00 %
19.08.2015 05:03 9,9 C 98 % 1016,1 hPa 0,0 l/m 0,0 km/h (0 Bft) NO 38 0 min 0,000 mm 0,0 UV-I 0 W/m 9,6 C 9,9 C 0,0 km/h (0 Bft) 0,00 %
19.08.2015 05:08 9,9 C 98 % 1016,2 hPa 0,0 l/m 0,0 km/h (0 Bft) NO 38 0 min 0,000 mm 0,0 UV-I 0 W/m 9,6 C 9,9 C 0,0 km/h (0 Bft) 0,00 %
19.08.2015 05:13 9,9 C 98 % 1016,3 hPa 0,0 l/m 0,0 km/h (0 Bft) NO 38 0 min 0,000 mm 0,0 UV-I 0 W/m 9,6 C 9,9 C 0,0 km/h (0 Bft) 0,00 %
19.08.2015 05:18 10,0 C 98 % 1016,1 hPa 0,0 l/m 0,0 km/h (0 Bft) NO 38 0 min 0,000 mm 0,0 UV-I 0 W/m 9,7 C 10,0 C 0,0 km/h (0 Bft) 0,00 %
19.08.2015 05:23 10,0 C 98 % 1016,0 hPa 0,0 l/m 0,0 km/h (0 Bft) NO 38 0 min 0,000 mm 0,0 UV-I 0 W/m 9,7 C 10,0 C 0,0 km/h (0 Bft) 0,00 %
19.08.2015 05:29 10,1 C 98 % 1016,1 hPa 0,0 l/m 0,0 km/h (0 Bft) NO 38 0 min 0,000 mm 0,0 UV-I 0 W/m 9,8 C 10,1 C 0,0 km/h (0 Bft) 0,00 %
19.08.2015 05:34 10,1 C 98 % 1016,1 hPa 0,0 l/m 0,0 km/h (0 Bft) NO 38 0 min 0,000 mm 0,0 UV-I 0 W/m 9,8 C 10,1 C 0,0 km/h (0 Bft) 0,00 %
19.08.2015 05:39 10,1 C 98 % 1015,9 hPa 0,0 l/m 0,0 km/h (0 Bft) NO 38 0 min 0,000 mm 0,0 UV-I 0 W/m 9,8 C 10,1 C 0,0 km/h (0 Bft) 0,00 %
19.08.2015 05:44 10,1 C 98 % 1015,9 hPa 0,0 l/m 0,0 km/h (0 Bft) NO 38 0 min 0,000 mm 0,0 UV-I 0 W/m 9,8 C 10,1 C 0,0 km/h (0 Bft) 0,00 %
19.08.2015 05:49 10,1 C 98 % 1015,8 hPa 0,0 l/m 0,0 km/h (0 Bft) NO 38 0 min 0,000 mm 0,0 UV-I 0 W/m 9,8 C 10,1 C 0,0 km/h (0 Bft) 0,00 %
19.08.2015 05:54 10,0 C 98 % 1015,9 hPa 0,0 l/m 0,0 km/h (0 Bft) NO 38 0 min 0,000 mm 0,0 UV-I 0 W/m 9,7 C 10,0 C 0,0 km/h (0 Bft) 0,00 %
19.08.2015 05:59 10,0 C 99 % 1015,8 hPa 0,0 l/m 0,0 km/h (0 Bft) NO 38 0 min 0,000 mm 0,0 UV-I 0 W/m 9,8 C 10,0 C 0,0 km/h (0 Bft) 0,00 %
19.08.2015 06:04 10,0 C 99 % 1015,9 hPa 0,0 l/m 0,0 km/h (0 Bft) NO 38 0 min 0,000 mm 0,0 UV-I 0 W/m 9,8 C 10,0 C 0,0 km/h (0 Bft) 0,00 %
19.08.2015 06:09 9,9 C 98 % 1016,1 hPa 0,0 l/m 0,0 km/h (0 Bft) NO 38 0 min 0,000 mm 0,0 UV-I 2 W/m 9,6 C 9,9 C 0,0 km/h (0 Bft) 0,00 %
19.08.2015 06:14 10,0 C 98 % 1016,1 hPa 0,0 l/m 0,0 km/h (0 Bft) NO 38 0 min 0,000 mm 0,0 UV-I 6 W/m 9,7 C 10,0 C 0,0 km/h (0 Bft) 0,00 %
19.08.2015 06:19 10,1 C 98 % 1016,2 hPa 0,0 l/m 0,0 km/h (0 Bft) NO 38 5 min 0,000 mm 0,0 UV-I 17 W/m 9,8 C 10,1 C 0,0 km/h (0 Bft) 0,00 %
19.08.2015 06:24 10,3 C 98 % 1016,2 hPa 0,0 l/m 0,0 km/h (0 Bft) NO 38 5 min 0,000 mm 0,0 UV-I 26 W/m 10,0 C 10,3 C 0,0 km/h (0 Bft) 0,00 %
19.08.2015 06:29 10,5 C 98 % 1016,1 hPa 0,0 l/m 0,0 km/h (0 Bft) NO 38 5 min 0,000 mm 0,0 UV-I 38 W/m 10,2 C 10,5 C 0,0 km/h (0 Bft) 0,00 %
19.08.2015 06:34 10,6 C 98 % 1016,2 hPa 0,0 l/m 0,0 km/h (0 Bft) N-NO 26 5 min 0,000 mm 0,0 UV-I 45 W/m 10,3 C 10,6 C 0,0 km/h (0 Bft) 0,00 %
19.08.2015 06:39 10,7 C 98 % 1016,3 hPa 0,0 l/m 0,0 km/h (0 Bft) N-NO 26 0 min 0,000 mm 0,0 UV-I 40 W/m 10,4 C 10,7 C 0,0 km/h (0 Bft) 0,00 %
19.08.2015 06:44 10,8 C 98 % 1016,3 hPa 0,0 l/m 0,0 km/h (0 Bft) N-NO 26 0 min 0,000 mm 0,0 UV-I 36 W/m 10,5 C 10,8 C 0,0 km/h (0 Bft) 0,00 %
19.08.2015 06:49 10,9 C 98 % 1016,3 hPa 0,0 l/m 0,0 km/h (0 Bft) N-NO 26 0 min 0,000 mm 0,0 UV-I 45 W/m 10,6 C 10,9 C 0,0 km/h (0 Bft) 0,00 %
19.08.2015 06:54 10,9 C 97 % 1016,5 hPa 0,0 l/m 0,0 km/h (0 Bft) N-NO 26 0 min 0,000 mm 0,0 UV-I 58 W/m 10,4 C 10,9 C 0,0 km/h (0 Bft) 0,00 %
19.08.2015 06:59 10,9 C 97 % 1016,3 hPa 0,0 l/m 0,0 km/h (0 Bft) N-NO 26 0 min 0,000 mm 0,0 UV-I 66 W/m 10,4 C 10,9 C 0,0 km/h (0 Bft) 0,00 %
19.08.2015 07:04 11,0 C 97 % 1016,5 hPa 0,0 l/m 0,0 km/h (0 Bft) N-NO 26 0 min 0,000 mm 0,0 UV-I 80 W/m 10,5 C 11,0 C 0,0 km/h (0 Bft) 0,00 %
19.08.2015 07:09 11,2 C 97 % 1016,5 hPa 0,0 l/m 0,0 km/h (0 Bft) N-NO 26 0 min 0,000 mm 0,0 UV-I 92 W/m 10,7 C 11,2 C 0,0 km/h (0 Bft) 0,00 %
19.08.2015 07:14 11,4 C 97 % 1016,4 hPa 0,0 l/m 0,0 km/h (0 Bft) N-NO 26 0 min 0,000 mm 0,0 UV-I 95 W/m 10,9 C 11,4 C 0,0 km/h (0 Bft) 0,00 %
19.08.2015 07:19 11,6 C 97 % 1016,4 hPa 0,0 l/m 0,0 km/h (0 Bft) N-NO 26 0 min 0,000 mm 0,0 UV-I 104 W/m 11,1 C 11,6 C 0,0 km/h (0 Bft) 0,00 %
19.08.2015 07:24 11,9 C 98 % 1016,4 hPa 0,0 l/m 0,0 km/h (0 Bft) N-NO 26 0 min 0,000 mm 0,0 UV-I 100 W/m 11,6 C 11,9 C 0,0 km/h (0 Bft) 0,00 %
19.08.2015 07:29 12,1 C 98 % 1016,8 hPa 0,0 l/m 0,0 km/h (0 Bft) N-NO 26 0 min 0,000 mm 0,0 UV-I 95 W/m 11,8 C 12,1 C 0,0 km/h (0 Bft) 0,00 %
19.08.2015 07:34 12,3 C 97 % 1016,7 hPa 0,0 l/m 0,0 km/h (0 Bft) N-NO 26 0 min 0,000 mm 0,0 UV-I 92 W/m 11,8 C 12,3 C 0,0 km/h (0 Bft) 0,00 %
19.08.2015 07:39 12,4 C 96 % 1016,8 hPa 0,0 l/m 0,0 km/h (0 Bft) N-NO 31 0 min 0,000 mm 0,0 UV-I 92 W/m 11,8 C 12,4 C 0,0 km/h (0 Bft) 0,00 %
19.08.2015 07:44 12,5 C 95 % 1016,8 hPa 0,0 l/m 0,0 km/h (0 Bft) NO 35 0 min 0,000 mm 0,0 UV-I 99 W/m 11,7 C 12,5 C 0,0 km/h (0 Bft) 0,00 %
19.08.2015 07:49 12,6 C 95 % 1017,0 hPa 0,0 l/m 0,0 km/h (0 Bft) NO 45 0 min 0,000 mm 1,0 UV-I 98 W/m 11,8 C 12,6 C 0,0 km/h (0 Bft) 0,00 %
19.08.2015 07:54 12,7 C 94 % 1016,8 hPa 0,0 l/m 0,0 km/h (0 Bft) N-NO 26 0 min 0,000 mm 1,0 UV-I 105 W/m 11,8 C 12,7 C 0,0 km/h (0 Bft) 0,00 %
19.08.2015 07:59 12,9 C 92 % 1017,0 hPa 0,0 l/m 0,0 km/h (0 Bft) NO 35 0 min 0,000 mm 1,0 UV-I 117 W/m 11,6 C 12,9 C 0,0 km/h (0 Bft) 0,00 %
19.08.2015 08:04 13,1 C 92 % 1016,8 hPa 0,0 l/m 0,0 km/h (0 Bft) NO 35 0 min 0,000 mm 1,0 UV-I 145 W/m 11,8 C 13,1 C 0,0 km/h (0 Bft) 0,00 %
19.08.2015 08:09 13,4 C 91 % 1016,8 hPa 0,0 l/m 0,0 km/h (0 Bft) NO 34 0 min 0,000 mm 1,0 UV-I 165 W/m 12,0 C 13,4 C 0,0 km/h (0 Bft) 0,00 %
19.08.2015 08:14 13,9 C 88 % 1016,9 hPa 0,0 l/m 0,0 km/h (0 Bft) N-NO 19 0 min 0,000 mm 1,0 UV-I 156 W/m 11,9 C 13,9 C 0,0 km/h (0 Bft) 0,00 %
19.08.2015 08:19 14,2 C 85 % 1016,7 hPa 0,0 l/m 0,0 km/h (0 Bft) N 352 0 min 0,000 mm 1,0 UV-I 151 W/m 11,7 C 14,2 C 0,0 km/h (0 Bft) 0,00 %
19.08.2015 08:24 14,4 C 83 % 1016,7 hPa 0,0 l/m 0,0 km/h (0 Bft) N 11 0 min 0,000 mm 1,0 UV-I 140 W/m 11,5 C 14,4 C 0,0 km/h (0 Bft) 0,00 %
19.08.2015 08:29 14,5 C 84 % 1016,7 hPa 0,0 l/m 0,0 km/h (0 Bft) NO 35 0 min 0,000 mm 1,0 UV-I 134 W/m 11,8 C 14,5 C 0,0 km/h (0 Bft) 0,00 %
19.08.2015 08:34 14,6 C 84 % 1016,7 hPa 0,0 l/m 0,0 km/h (0 Bft) NO 35 0 min 0,000 mm 1,0 UV-I 140 W/m 11,9 C 14,6 C 0,0 km/h (0 Bft) 0,00 %
19.08.2015 08:39 14,7 C 83 % 1016,7 hPa 0,0 l/m 0,0 km/h (0 Bft) NO 38 0 min 0,000 mm 1,0 UV-I 157 W/m 11,8 C 14,7 C 0,0 km/h (0 Bft) 0,00 %
19.08.2015 08:44 14,9 C 82 % 1016,7 hPa 0,0 l/m 0,0 km/h (0 Bft) N-NO 25 0 min 0,000 mm 1,0 UV-I 175 W/m 11,9 C 14,9 C 0,0 km/h (0 Bft) 0,00 %
19.08.2015 08:49 15,1 C 82 % 1016,7 hPa 0,0 l/m 0,0 km/h (0 Bft) O-NO 61 0 min 0,000 mm 1,0 UV-I 198 W/m 12,0 C 15,1 C 0,0 km/h (0 Bft) 0,00 %
19.08.2015 08:54 15,3 C 81 % 1016,7 hPa 0,0 l/m 0,0 km/h (0 Bft) N-NO 27 0 min 0,000 mm 1,0 UV-I 236 W/m 12,1 C 15,3 C 0,0 km/h (0 Bft) 0,00 %
19.08.2015 08:59 15,6 C 79 % 1016,7 hPa 0,0 l/m 0,0 km/h (0 Bft) NO 37 0 min 0,000 mm 1,0 UV-I 254 W/m 12,0 C 15,6 C 0,0 km/h (0 Bft) 0,00 %
19.08.2015 09:04 16,0 C 77 % 1016,7 hPa 0,0 l/m 0,0 km/h (0 Bft) N-NO 20 0 min 0,000 mm 1,0 UV-I 255 W/m 12,0 C 16,0 C 0,0 km/h (0 Bft) 0,00 %
19.08.2015 09:09 16,5 C 74 % 1016,9 hPa 0,0 l/m 0,0 km/h (0 Bft) NO 51 0 min 0,000 mm 1,0 UV-I 269 W/m 11,8 C 16,5 C 0,0 km/h (0 Bft) 0,00 %
19.08.2015 09:14 17,0 C 73 % 1016,7 hPa 0,0 l/m 0,0 km/h (0 Bft) O-NO 58 5 min 0,000 mm 1,0 UV-I 282 W/m 12,1 C 17,0 C 0,0 km/h (0 Bft) 0,00 %
19.08.2015 09:19 17,5 C 68 % 1016,9 hPa 0,0 l/m 0,0 km/h (0 Bft) NO 37 5 min 0,000 mm 1,0 UV-I 285 W/m 11,5 C 17,5 C 0,0 km/h (0 Bft) 0,00 %
19.08.2015 09:24 17,9 C 68 % 1016,9 hPa 0,0 l/m 0,0 km/h (0 Bft) N-NO 29 5 min 0,000 mm 1,0 UV-I 329 W/m 11,9 C 17,9 C 0,0 km/h (0 Bft) 0,00 %
19.08.2015 09:29 18,2 C 69 % 1016,8 hPa 0,0 l/m 0,0 km/h (0 Bft) O-NO 58 5 min 0,000 mm 1,0 UV-I 346 W/m 12,4 C 18,2 C 0,0 km/h (0 Bft) 0,00 %
19.08.2015 09:34 18,5 C 68 % 1016,9 hPa 0,0 l/m 0,0 km/h (0 Bft) N-NO 33 5 min 0,000 mm 1,0 UV-I 337 W/m 12,5 C 18,5 C 0,0 km/h (0 Bft) 0,00 %
19.08.2015 09:39 18,8 C 65 % 1016,9 hPa 0,0 l/m 0,0 km/h (0 Bft) NO 36 5 min 0,000 mm 1,0 UV-I 325 W/m 12,1 C 18,8 C 0,0 km/h (0 Bft) 0,00 %
19.08.2015 09:44 19,2 C 61 % 1016,9 hPa 0,0 l/m 0,0 km/h (0 Bft) NO 44 5 min 0,000 mm 2,0 UV-I 337 W/m 11,5 C 19,2 C 0,0 km/h (0 Bft) 0,00 %
19.08.2015 09:49 19,5 C 61 % 1016,9 hPa 0,0 l/m 0,0 km/h (0 Bft) O-SO 109 5 min 0,000 mm 2,0 UV-I 365 W/m 11,8 C 19,5 C 0,0 km/h (0 Bft) 0,00 %
19.08.2015 09:54 19,5 C 61 % 1016,8 hPa 0,0 l/m 0,0 km/h (0 Bft) NO 53 5 min 0,000 mm 2,0 UV-I 379 W/m 11,8 C 19,5 C 0,0 km/h (0 Bft) 0,00 %
19.08.2015 09:59 19,5 C 61 % 1016,9 hPa 0,0 l/m 0,7 km/h (0 Bft) O-NO 76 5 min 0,000 mm 2,0 UV-I 461 W/m 11,8 C 19,5 C 4,0 km/h (1 Bft) 0,00 %
19.08.2015 10:04 19,7 C 59 % 1016,9 hPa 0,0 l/m 0,0 km/h (0 Bft) O 100 5 min 0,000 mm 2,0 UV-I 568 W/m 11,5 C 19,7 C 0,0 km/h (0 Bft) 0,00 %
19.08.2015 10:09 20,2 C 56 % 1017,1 hPa 0,0 l/m 0,0 km/h (0 Bft) O 86 5 min 0,000 mm 2,0 UV-I 592 W/m 11,1 C 20,2 C 0,0 km/h (0 Bft) 0,00 %
19.08.2015 10:14 21,0 C 53 % 1017,2 hPa 0,0 l/m 0,0 km/h (0 Bft) NO 48 5 min 0,000 mm 2,0 UV-I 550 W/m 11,0 C 21,0 C 0,0 km/h (0 Bft) 0,00 %
19.08.2015 10:19 21,5 C 51 % 1017,0 hPa 0,0 l/m 0,0 km/h (0 Bft) O 83 5 min 0,000 mm 2,0 UV-I 481 W/m 10,9 C 21,5 C 0,0 km/h (0 Bft) 0,00 %
19.08.2015 10:24 21,6 C 53 % 1016,9 hPa 0,0 l/m 0,0 km/h (0 Bft) O-NO 78 5 min 0,000 mm 2,0 UV-I 430 W/m 11,6 C 21,6 C 0,0 km/h (0 Bft) 0,00 %
19.08.2015 10:29 21,5 C 52 % 1017,0 hPa 0,0 l/m 0,0 km/h (0 Bft) NO 44 0 min 0,000 mm 2,0 UV-I 352 W/m 11,2 C 21,5 C 0,0 km/h (0 Bft) 0,00 %
19.08.2015 10:34 21,3 C 54 % 1017,2 hPa 0,0 l/m 0,0 km/h (0 Bft) SO 128 0 min 0,000 mm 2,0 UV-I 336 W/m 11,6 C 21,3 C 0,0 km/h (0 Bft) 0,00 %
19.08.2015 10:39 21,1 C 57 % 1017,1 hPa 0,0 l/m 0,0 km/h (0 Bft) NO 53 0 min 0,000 mm 2,0 UV-I 368 W/m 12,2 C 21,1 C 0,0 km/h (0 Bft) 0,00 %
19.08.2015 10:44 20,8 C 55 % 1017,3 hPa 0,0 l/m 0,0 km/h (0 Bft) NO 38 5 min 0,000 mm 2,0 UV-I 389 W/m 11,4 C 20,8 C 0,0 km/h (0 Bft) 0,00 %
19.08.2015 10:49 20,7 C 55 % 1017,3 hPa 0,0 l/m 0,0 km/h (0 Bft) O-NO 63 5 min 0,000 mm 2,0 UV-I 385 W/m 11,3 C 20,7 C 0,0 km/h (0 Bft) 0,00 %
19.08.2015 10:54 20,6 C 58 % 1017,2 hPa 0,0 l/m 0,0 km/h (0 Bft) NO 52 0 min 0,000 mm 2,0 UV-I 374 W/m 12,0 C 20,6 C 0,0 km/h (0 Bft) 0,00 %
19.08.2015 10:59 20,3 C 57 % 1017,2 hPa 0,0 l/m 0,0 km/h (0 Bft) NO 50 0 min 0,000 mm 2,0 UV-I 337 W/m 11,5 C 20,3 C 0,0 km/h (0 Bft) 0,00 %
19.08.2015 11:04 20,1 C 58 % 1017,2 hPa 0,0 l/m 0,0 km/h (0 Bft) NO 36 0 min 0,000 mm 2,0 UV-I 336 W/m 11,6 C 20,1 C 0,0 km/h (0 Bft) 0,00 %
19.08.2015 11:09 20,1 C 59 % 1017,3 hPa 0,0 l/m 0,0 km/h (0 Bft) O-NO 57 0 min 0,000 mm 2,0 UV-I 362 W/m 11,8 C 20,1 C 0,0 km/h (0 Bft) 0,00 %
19.08.2015 11:14 20,1 C 59 % 1017,2 hPa 0,0 l/m 0,0 km/h (0 Bft) N-NO 32 5 min 0,000 mm 2,0 UV-I 407 W/m 11,8 C 20,1 C 0,0 km/h (0 Bft) 0,00 %
19.08.2015 11:19 20,2 C 59 % 1017,4 hPa 0,0 l/m 0,0 km/h (0 Bft) NO 50 5 min 0,000 mm 2,0 UV-I 460 W/m 11,9 C 20,2 C 0,0 km/h (0 Bft) 0,00 %
19.08.2015 11:24 20,6 C 53 % 1017,1 hPa 0,0 l/m 0,0 km/h (0 Bft) O-NO 57 5 min 0,000 mm 2,0 UV-I 437 W/m 10,7 C 20,6 C 0,0 km/h (0 Bft) 0,00 %
19.08.2015 11:29 20,8 C 53 % 1017,1 hPa 0,0 l/m 0,0 km/h (0 Bft) NO 38 5 min 0,000 mm 2,0 UV-I 513 W/m 10,9 C 20,8 C 0,0 km/h (0 Bft) 0,00 %
19.08.2015 11:34 20,9 C 53 % 1017,0 hPa 0,0 l/m 0,0 km/h (0 Bft) NO 45 5 min 0,000 mm 3,0 UV-I 626 W/m 11,0 C 20,9 C 0,0 km/h (0 Bft) 0,00 %
19.08.2015 11:39 21,2 C 51 % 1017,1 hPa 0,0 l/m 0,0 km/h (0 Bft) N-NW 335 5 min 0,000 mm 3,0 UV-I 641 W/m 10,7 C 21,2 C 0,0 km/h (0 Bft) 0,00 %
19.08.2015 11:44 21,5 C 52 % 1017,1 hPa 0,0 l/m 0,0 km/h (0 Bft) W-NW 299 5 min 0,000 mm 3,0 UV-I 757 W/m 11,2 C 21,5 C 0,0 km/h (0 Bft) 0,00 %
19.08.2015 11:49 21,9 C 52 % 1016,9 hPa 0,0 l/m 0,0 km/h (0 Bft) N-NW 348 5 min 0,000 mm 3,0 UV-I 793 W/m 11,6 C 21,9 C 0,0 km/h (0 Bft) 0,00 %
19.08.2015 11:54 22,5 C 46 % 1017,0 hPa 0,0 l/m 0,0 km/h (0 Bft) N 349 5 min 0,000 mm 3,0 UV-I 671 W/m 10,3 C 22,5 C 0,0 km/h (0 Bft) 0,00 %
19.08.2015 11:59 23,0 C 46 % 1017,0 hPa 0,0 l/m 0,0 km/h (0 Bft) NO 52 5 min 0,000 mm 3,0 UV-I 761 W/m 10,7 C 23,0 C 0,0 km/h (0 Bft) 0,00 %
19.08.2015 12:04 22,9 C 48 % 1016,9 hPa 0,0 l/m 0,0 km/h (0 Bft) NO 43 5 min 0,000 mm 3,0 UV-I 811 W/m 11,3 C 22,9 C 0,0 km/h (0 Bft) 0,00 %
19.08.2015 12:09 22,7 C 47 % 1017,0 hPa 0,0 l/m 0,0 km/h (0 Bft) NO 45 5 min 0,000 mm 3,0 UV-I 701 W/m 10,8 C 22,7 C 0,0 km/h (0 Bft) 0,00 %
19.08.2015 12:14 22,7 C 47 % 1016,8 hPa 0,0 l/m 0,0 km/h (0 Bft) N-NO 22 5 min 0,000 mm 3,0 UV-I 746 W/m 10,8 C 22,7 C 0,0 km/h (0 Bft) 0,00 %
19.08.2015 12:19 23,1 C 45 % 1016,8 hPa 0,0 l/m 0,0 km/h (0 Bft) O 101 5 min 0,000 mm 3,0 UV-I 569 W/m 10,5 C 23,1 C 0,0 km/h (0 Bft) 0,00 %
19.08.2015 12:24 23,3 C 45 % 1016,7 hPa 0,0 l/m 0,0 km/h (0 Bft) NO 36 5 min 0,000 mm 2,0 UV-I 450 W/m 10,7 C 23,3 C 0,0 km/h (0 Bft) 0,00 %
19.08.2015 12:29 23,1 C 46 % 1016,7 hPa 0,0 l/m 0,0 km/h (0 Bft) N 354 5 min 0,000 mm 2,0 UV-I 518 W/m 10,8 C 23,1 C 0,0 km/h (0 Bft) 0,00 %
19.08.2015 12:34 22,7 C 52 % 1016,6 hPa 0,0 l/m 0,0 km/h (0 Bft) N-NO 29 5 min 0,000 mm 3,0 UV-I 607 W/m 12,3 C 22,7 C 0,0 km/h (0 Bft) 0,00 %
19.08.2015 12:39 22,4 C 49 % 1016,7 hPa 0,0 l/m 0,0 km/h (0 Bft) S-SW 205 0 min 0,000 mm 2,0 UV-I 426 W/m 11,2 C 22,4 C 0,0 km/h (0 Bft) 0,00 %
19.08.2015 12:44 22,2 C 48 % 1016,7 hPa 0,0 l/m 0,0 km/h (0 Bft) N-NO 22 0 min 0,000 mm 2,0 UV-I 412 W/m 10,7 C 22,2 C 0,0 km/h (0 Bft) 0,00 %
19.08.2015 12:49 22,0 C 48 % 1016,8 hPa 0,0 l/m 0,0 km/h (0 Bft) N-NW 344 0 min 0,000 mm 2,0 UV-I 425 W/m 10,5 C 22,0 C 0,0 km/h (0 Bft) 0,00 %
19.08.2015 12:54 21,8 C 49 % 1016,7 hPa 0,0 l/m 0,0 km/h (0 Bft) N-NO 31 5 min 0,000 mm 2,0 UV-I 554 W/m 10,6 C 21,8 C 0,0 km/h (0 Bft) 0,00 %
19.08.2015 12:59 21,7 C 51 % 1016,7 hPa 0,0 l/m 0,0 km/h (0 Bft) W-SW 256 5 min 0,000 mm 2,0 UV-I 466 W/m 11,1 C 21,7 C 0,0 km/h (0 Bft) 0,00 %
19.08.2015 13:04 21,8 C 51 % 1016,7 hPa 0,0 l/m 0,0 km/h (0 Bft) N 349 5 min 0,000 mm 3,0 UV-I 611 W/m 11,2 C 21,8 C 0,0 km/h (0 Bft) 0,00 %
19.08.2015 13:09 21,8 C 50 % 1016,6 hPa 0,0 l/m 0,0 km/h (0 Bft) N-NO 20 0 min 0,000 mm 2,0 UV-I 390 W/m 10,9 C 21,8 C 0,0 km/h (0 Bft) 0,00 %
19.08.2015 13:14 22,0 C 44 % 1016,8 hPa 0,0 l/m 0,0 km/h (0 Bft) N 350 5 min 0,000 mm 2,0 UV-I 450 W/m 9,2 C 22,0 C 0,0 km/h (0 Bft) 0,00 %
19.08.2015 13:19 22,3 C 46 % 1016,7 hPa 0,0 l/m 0,0 km/h (0 Bft) W-SW 256 5 min 0,000 mm 3,0 UV-I 573 W/m 10,1 C 22,3 C 0,0 km/h (0 Bft) 0,00 %
19.08.2015 13:24 22,6 C 45 % 1016,7 hPa 0,0 l/m 0,0 km/h (0 Bft) NO 50 5 min 0,000 mm 3,0 UV-I 536 W/m 10,1 C 22,6 C 0,0 km/h (0 Bft) 0,00 %
19.08.2015 13:29 22,8 C 43 % 1016,6 hPa 0,0 l/m 0,0 km/h (0 Bft) NW 312 5 min 0,000 mm 2,0 UV-I 511 W/m 9,6 C 22,8 C 0,0 km/h (0 Bft) 0,00 %
19.08.2015 13:34 22,7 C 45 % 1016,6 hPa 0,0 l/m 0,0 km/h (0 Bft) NO 54 5 min 0,000 mm 3,0 UV-I 578 W/m 10,1 C 22,7 C 0,0 km/h (0 Bft) 0,00 %
19.08.2015 13:39 22,7 C 45 % 1016,5 hPa 0,0 l/m 0,0 km/h (0 Bft) NW 317 5 min 0,000 mm 2,0 UV-I 451 W/m 10,1 C 22,7 C 0,0 km/h (0 Bft) 0,00 %
19.08.2015 13:44 22,8 C 47 % 1016,7 hPa 0,0 l/m 0,0 km/h (0 Bft) N-NO 32 5 min 0,000 mm 3,0 UV-I 617 W/m 10,9 C 22,8 C 0,0 km/h (0 Bft) 0,00 %
19.08.2015 13:49 23,0 C 42 % 1016,6 hPa 0,0 l/m 0,0 km/h (0 Bft) W-SW 256 5 min 0,000 mm 3,0 UV-I 608 W/m 9,4 C 23,0 C 0,0 km/h (0 Bft) 0,00 %
19.08.2015 13:54 23,1 C 42 % 1016,9 hPa 0,0 l/m 0,0 km/h (0 Bft) N 352 5 min 0,000 mm 2,0 UV-I 484 W/m 9,5 C 23,1 C 0,0 km/h (0 Bft) 0,00 %
19.08.2015 13:59 23,4 C 44 % 1016,6 hPa 0,0 l/m 0,0 km/h (0 Bft) N-NW 347 5 min 0,000 mm 2,0 UV-I 475 W/m 10,4 C 23,4 C 0,0 km/h (0 Bft) 0,00 %
19.08.2015 14:04 23,6 C 43 % 1016,7 hPa 0,0 l/m 0,0 km/h (0 Bft) NW 308 5 min 0,000 mm 2,0 UV-I 519 W/m 10,3 C 23,6 C 0,0 km/h (0 Bft) 0,00 %
19.08.2015 14:09 23,6 C 43 % 1016,7 hPa 0,0 l/m 0,0 km/h (0 Bft) O-NO 60 5 min 0,000 mm 2,0 UV-I 476 W/m 10,3 C 23,6 C 0,0 km/h (0 Bft) 0,00 %
19.08.2015 14:14 23,8 C 40 % 1016,6 hPa 0,0 l/m 0,0 km/h (0 Bft) NW 312 0 min 0,000 mm 1,0 UV-I 326 W/m 9,4 C 23,8 C 0,0 km/h (0 Bft) 0,00 %
19.08.2015 14:19 23,7 C 48 % 1016,7 hPa 0,0 l/m 1,8 km/h (1 Bft) W-SW 255 0 min 0,000 mm 1,0 UV-I 292 W/m 12,0 C 23,7 C 4,0 km/h (1 Bft) 0,00 %
19.08.2015 14:24 22,7 C 50 % 1016,6 hPa 0,0 l/m 0,0 km/h (0 Bft) W 270 0 min 0,000 mm 1,0 UV-I 259 W/m 11,7 C 22,7 C 0,0 km/h (0 Bft) 0,00 %
19.08.2015 14:29 21,9 C 51 % 1016,9 hPa 0,0 l/m 4,7 km/h (1 Bft) W-NW 290 0 min 0,000 mm 1,0 UV-I 282 W/m 11,3 C 21,9 C 7,9 km/h (2 Bft) 0,00 %
19.08.2015 14:34 21,6 C 53 % 1016,8 hPa 0,0 l/m 0,0 km/h (0 Bft) O-NO 60 0 min 0,000 mm 1,0 UV-I 278 W/m 11,6 C 21,6 C 0,0 km/h (0 Bft) 0,00 %
19.08.2015 14:39 21,5 C 51 % 1016,9 hPa 0,0 l/m 0,0 km/h (0 Bft) N 351 0 min 0,000 mm 1,0 UV-I 269 W/m 10,9 C 21,5 C 0,0 km/h (0 Bft) 0,00 %
19.08.2015 14:44 21,7 C 49 % 1016,9 hPa 0,0 l/m 2,2 km/h (1 Bft) W 278 0 min 0,000 mm 1,0 UV-I 282 W/m 10,5 C 21,7 C 4,0 km/h (1 Bft) 0,00 %
19.08.2015 14:49 21,9 C 48 % 1016,8 hPa 0,0 l/m 5,4 km/h (1 Bft) W-SW 256 0 min 0,000 mm 1,0 UV-I 325 W/m 10,4 C 21,9 C 7,9 km/h (2 Bft) 0,00 %
19.08.2015 14:54 21,8 C 50 % 1016,8 hPa 0,0 l/m 0,0 km/h (0 Bft) NO 46 0 min 0,000 mm 2,0 UV-I 368 W/m 10,9 C 21,8 C 0,0 km/h (0 Bft) 0,00 %
19.08.2015 14:59 21,8 C 49 % 1016,5 hPa 0,0 l/m 2,2 km/h (1 Bft) W-NW 282 5 min 0,000 mm 2,0 UV-I 417 W/m 10,6 C 21,8 C 7,9 km/h (2 Bft) 0,00 %
19.08.2015 15:04 21,9 C 46 % 1016,6 hPa 0,0 l/m 0,0 km/h (0 Bft) O-NO 67 5 min 0,000 mm 2,0 UV-I 420 W/m 9,7 C 21,9 C 0,0 km/h (0 Bft) 0,00 %
19.08.2015 15:09 22,2 C 46 % 1016,7 hPa 0,0 l/m 0,7 km/h (0 Bft) N-NO 27 0 min 0,000 mm 2,0 UV-I 373 W/m 10,0 C 22,2 C 4,0 km/h (1 Bft) 0,00 %
19.08.2015 15:14 22,5 C 45 % 1016,8 hPa 0,0 l/m 0,0 km/h (0 Bft) NO 46 0 min 0,000 mm 2,0 UV-I 348 W/m 10,0 C 22,5 C 0,0 km/h (0 Bft) 0,00 %
19.08.2015 15:19 22,7 C 45 % 1016,7 hPa 0,0 l/m 0,0 km/h (0 Bft) N 354 0 min 0,000 mm 2,0 UV-I 338 W/m 10,1 C 22,7 C 0,0 km/h (0 Bft) 0,00 %
19.08.2015 15:24 22,7 C 46 % 1016,6 hPa 0,0 l/m 0,7 km/h (0 Bft) W-SW 256 0 min 0,000 mm 2,0 UV-I 338 W/m 10,5 C 22,7 C 4,0 km/h (1 Bft) 0,00 %
19.08.2015 15:29 22,6 C 46 % 1016,5 hPa 0,0 l/m 1,8 km/h (1 Bft) W-SW 244 0 min 0,000 mm 2,0 UV-I 334 W/m 10,4 C 22,6 C 4,0 km/h (1 Bft) 0,00 %
19.08.2015 15:34 22,5 C 45 % 1016,6 hPa 0,0 l/m 0,0 km/h (0 Bft) O 86 0 min 0,000 mm 1,0 UV-I 306 W/m 10,0 C 22,5 C 0,0 km/h (0 Bft) 0,00 %
19.08.2015 15:39 22,5 C 45 % 1016,7 hPa 0,0 l/m 0,0 km/h (0 Bft) N-NW 333 0 min 0,000 mm 1,0 UV-I 260 W/m 10,0 C 22,5 C 0,0 km/h (0 Bft) 0,00 %
19.08.2015 15:44 22,4 C 45 % 1016,7 hPa 0,0 l/m 0,7 km/h (0 Bft) N-NW 346 0 min 0,000 mm 1,0 UV-I 217 W/m 9,9 C 22,4 C 4,0 km/h (1 Bft) 0,00 %
19.08.2015 15:49 22,1 C 46 % 1016,7 hPa 0,0 l/m 0,0 km/h (0 Bft) O-NO 60 0 min 0,000 mm 1,0 UV-I 180 W/m 9,9 C 22,1 C 0,0 km/h (0 Bft) 0,00 %
19.08.2015 15:54 21,8 C 48 % 1016,8 hPa 0,0 l/m 0,0 km/h (0 Bft) NO 36 0 min 0,000 mm 1,0 UV-I 170 W/m 10,3 C 21,8 C 0,0 km/h (0 Bft) 0,00 %
19.08.2015 15:59 21,6 C 49 % 1016,8 hPa 0,0 l/m 0,0 km/h (0 Bft) NO 54 0 min 0,000 mm 1,0 UV-I 165 W/m 10,4 C 21,6 C 0,0 km/h (0 Bft) 0,00 %
19.08.2015 16:04 21,5 C 49 % 1016,6 hPa 0,0 l/m 0,0 km/h (0 Bft) NO 49 0 min 0,000 mm 1,0 UV-I 148 W/m 10,3 C 21,5 C 0,0 km/h (0 Bft) 0,00 %
19.08.2015 16:09 21,4 C 48 % 1016,7 hPa 0,0 l/m 0,0 km/h (0 Bft) N 2 0 min 0,000 mm 1,0 UV-I 148 W/m 9,9 C 21,4 C 0,0 km/h (0 Bft) 0,00 %
19.08.2015 16:14 21,3 C 49 % 1016,6 hPa 0,0 l/m 0,0 km/h (0 Bft) O 91 0 min 0,000 mm 1,0 UV-I 141 W/m 10,1 C 21,3 C 0,0 km/h (0 Bft) 0,00 %
19.08.2015 16:19 21,0 C 50 % 1016,7 hPa 0,0 l/m 0,0 km/h (0 Bft) O-NO 58 0 min 0,000 mm 1,0 UV-I 143 W/m 10,2 C 21,0 C 0,0 km/h (0 Bft) 0,00 %
19.08.2015 16:24 20,8 C 52 % 1016,5 hPa 0,0 l/m 0,0 km/h (0 Bft) NO 41 0 min 0,000 mm 1,0 UV-I 125 W/m 10,6 C 20,8 C 0,0 km/h (0 Bft) 0,00 %
19.08.2015 16:29 20,7 C 52 % 1016,7 hPa 0,0 l/m 0,0 km/h (0 Bft) NO 39 0 min 0,000 mm 1,0 UV-I 115 W/m 10,5 C 20,7 C 0,0 km/h (0 Bft) 0,00 %
19.08.2015 16:34 20,6 C 52 % 1016,8 hPa 0,0 l/m 1,4 km/h (1 Bft) NW 305 0 min 0,000 mm 1,0 UV-I 99 W/m 10,4 C 20,6 C 4,0 km/h (1 Bft) 0,00 %
19.08.2015 16:39 20,4 C 53 % 1016,8 hPa 0,0 l/m 1,4 km/h (1 Bft) O 92 0 min 0,000 mm 0,0 UV-I 85 W/m 10,5 C 20,4 C 4,0 km/h (1 Bft) 0,00 %
19.08.2015 16:44 20,2 C 54 % 1016,9 hPa 0,0 l/m 0,0 km/h (0 Bft) NO 48 0 min 0,000 mm 0,0 UV-I 79 W/m 10,6 C 20,2 C 0,0 km/h (0 Bft) 0,00 %
19.08.2015 16:49 20,0 C 55 % 1016,8 hPa 0,0 l/m 1,8 km/h (1 Bft) N-NW 343 0 min 0,000 mm 0,0 UV-I 74 W/m 10,7 C 20,0 C 4,0 km/h (1 Bft) 0,00 %
19.08.2015 16:54 19,8 C 56 % 1017,1 hPa 0,0 l/m 0,0 km/h (0 Bft) O-NO 76 0 min 0,000 mm 0,0 UV-I 72 W/m 10,8 C 19,8 C 0,0 km/h (0 Bft) 0,00 %
19.08.2015 16:59 19,6 C 56 % 1016,8 hPa 0,0 l/m 0,4 km/h (0 Bft) W-SW 254 0 min 0,000 mm 0,0 UV-I 69 W/m 10,6 C 19,6 C 4,0 km/h (1 Bft) 0,00 %
19.08.2015 17:04 19,5 C 56 % 1017,0 hPa 0,0 l/m 1,4 km/h (1 Bft) N 352 0 min 0,000 mm 0,0 UV-I 73 W/m 10,5 C 19,5 C 4,0 km/h (1 Bft) 0,00 %
19.08.2015 17:09 19,3 C 57 % 1017,1 hPa 0,0 l/m 1,8 km/h (1 Bft) SW 227 0 min 0,000 mm 0,0 UV-I 75 W/m 10,6 C 19,3 C 4,0 km/h (1 Bft) 0,00 %
19.08.2015 17:14 19,2 C 57 % 1017,1 hPa 0,0 l/m 0,0 km/h (0 Bft) N 354 0 min 0,000 mm 0,0 UV-I 75 W/m 10,5 C 19,2 C 0,0 km/h (0 Bft) 0,00 %
19.08.2015 17:19 19,1 C 58 % 1017,1 hPa 0,0 l/m 0,7 km/h (0 Bft) N 350 0 min 0,000 mm 0,0 UV-I 76 W/m 10,6 C 19,1 C 4,0 km/h (1 Bft) 0,00 %
19.08.2015 17:24 19,1 C 58 % 1017,0 hPa 0,0 l/m 2,9 km/h (1 Bft) N 351 0 min 0,000 mm 0,0 UV-I 81 W/m 10,6 C 19,1 C 4,0 km/h (1 Bft) 0,00 %
19.08.2015 17:29 19,1 C 59 % 1017,1 hPa 0,0 l/m 0,0 km/h (0 Bft) NO 45 0 min 0,000 mm 0,0 UV-I 85 W/m 10,9 C 19,1 C 0,0 km/h (0 Bft) 0,00 %
19.08.2015 17:34 19,1 C 59 % 1017,0 hPa 0,0 l/m 0,0 km/h (0 Bft) N-NW 348 0 min 0,000 mm 0,0 UV-I 84 W/m 10,9 C 19,1 C 0,0 km/h (0 Bft) 0,00 %
19.08.2015 17:39 19,1 C 60 % 1017,1 hPa 0,0 l/m 0,0 km/h (0 Bft) NO 49 0 min 0,000 mm 0,0 UV-I 80 W/m 11,1 C 19,1 C 0,0 km/h (0 Bft) 0,00 %
19.08.2015 17:44 19,1 C 59 % 1017,2 hPa 0,0 l/m 1,4 km/h (1 Bft) NO 51 0 min 0,000 mm 0,0 UV-I 75 W/m 10,9 C 19,1 C 4,0 km/h (1 Bft) 0,00 %
19.08.2015 17:49 19,1 C 60 % 1017,2 hPa 0,0 l/m 0,0 km/h (0 Bft) O-NO 62 0 min 0,000 mm 0,0 UV-I 71 W/m 11,1 C 19,1 C 0,0 km/h (0 Bft) 0,00 %
19.08.2015 17:54 19,0 C 60 % 1017,3 hPa 0,0 l/m 0,7 km/h (0 Bft) N 11 0 min 0,000 mm 0,0 UV-I 70 W/m 11,1 C 19,0 C 4,0 km/h (1 Bft) 0,00 %
19.08.2015 17:59 18,9 C 61 % 1017,3 hPa 0,0 l/m 4,3 km/h (1 Bft) N-NW 343 0 min 0,000 mm 0,0 UV-I 70 W/m 11,2 C 18,9 C 7,9 km/h (2 Bft) 0,00 %
19.08.2015 18:04 18,8 C 61 % 1017,4 hPa 0,0 l/m 5,4 km/h (1 Bft) W-SW 256 0 min 0,000 mm 0,0 UV-I 77 W/m 11,1 C 18,8 C 7,9 km/h (2 Bft) 0,00 %
19.08.2015 18:09 18,7 C 62 % 1017,3 hPa 0,0 l/m 6,5 km/h (2 Bft) W 269 0 min 0,000 mm 0,0 UV-I 83 W/m 11,3 C 18,7 C 7,9 km/h (2 Bft) 0,00 %
19.08.2015 18:14 18,6 C 64 % 1017,5 hPa 0,0 l/m 1,4 km/h (1 Bft) N-NO 28 0 min 0,000 mm 0,0 UV-I 69 W/m 11,7 C 18,6 C 4,0 km/h (1 Bft) 0,00 %
19.08.2015 18:19 18,3 C 65 % 1017,7 hPa 0,0 l/m 0,7 km/h (0 Bft) S 177 0 min 0,000 mm 0,0 UV-I 58 W/m 11,6 C 18,3 C 4,0 km/h (1 Bft) 0,00 %
19.08.2015 18:24 18,1 C 67 % 1017,5 hPa 0,0 l/m 0,0 km/h (0 Bft) NO 41 0 min 0,000 mm 0,0 UV-I 53 W/m 11,9 C 18,1 C 0,0 km/h (0 Bft) 0,00 %
19.08.2015 18:29 17,8 C 67 % 1017,7 hPa 0,0 l/m 0,4 km/h (0 Bft) NO 36 0 min 0,000 mm 0,0 UV-I 59 W/m 11,6 C 17,8 C 4,0 km/h (1 Bft) 0,00 %
19.08.2015 18:34 17,6 C 67 % 1017,5 hPa 0,0 l/m 0,0 km/h (0 Bft) NO 34 0 min 0,000 mm 0,0 UV-I 61 W/m 11,4 C 17,6 C 0,0 km/h (0 Bft) 0,00 %
19.08.2015 18:39 17,5 C 68 % 1017,6 hPa 0,0 l/m 0,4 km/h (0 Bft) N 353 0 min 0,000 mm 0,0 UV-I 60 W/m 11,5 C 17,5 C 4,0 km/h (1 Bft) 0,00 %
19.08.2015 18:44 17,4 C 69 % 1017,5 hPa 0,0 l/m 5,4 km/h (1 Bft) N-NW 334 0 min 0,000 mm 0,0 UV-I 62 W/m 11,7 C 17,4 C 7,9 km/h (2 Bft) 0,00 %
19.08.2015 18:49 17,4 C 70 % 1017,6 hPa 0,0 l/m 0,4 km/h (0 Bft) NW 318 0 min 0,000 mm 0,0 UV-I 64 W/m 11,9 C 17,4 C 4,0 km/h (1 Bft) 0,00 %
19.08.2015 18:54 17,4 C 71 % 1017,8 hPa 0,0 l/m 2,2 km/h (1 Bft) W-NW 299 0 min 0,000 mm 0,0 UV-I 62 W/m 12,1 C 17,4 C 4,0 km/h (1 Bft) 0,00 %
19.08.2015 18:59 17,4 C 72 % 1017,7 hPa 0,0 l/m 0,4 km/h (0 Bft) N-NO 15 0 min 0,000 mm 0,0 UV-I 58 W/m 12,3 C 17,4 C 4,0 km/h (1 Bft) 0,00 %
19.08.2015 19:04 17,3 C 72 % 1017,7 hPa 0,0 l/m 0,0 km/h (0 Bft) N-NW 346 0 min 0,000 mm 0,0 UV-I 50 W/m 12,2 C 17,3 C 0,0 km/h (0 Bft) 0,00 %
19.08.2015 19:09 17,3 C 72 % 1017,7 hPa 0,0 l/m 0,0 km/h (0 Bft) NO 35 0 min 0,000 mm 0,0 UV-I 38 W/m 12,2 C 17,3 C 0,0 km/h (0 Bft) 0,00 %
19.08.2015 19:14 17,2 C 72 % 1018,0 hPa 0,0 l/m 0,0 km/h (0 Bft) NO 39 0 min 0,000 mm 0,0 UV-I 29 W/m 12,1 C 17,2 C 0,0 km/h (0 Bft) 0,00 %
19.08.2015 19:19 17,2 C 72 % 1018,0 hPa 0,0 l/m 0,0 km/h (0 Bft) NO 36 0 min 0,000 mm 0,0 UV-I 22 W/m 12,1 C 17,2 C 0,0 km/h (0 Bft) 0,00 %
19.08.2015 19:24 17,2 C 72 % 1017,9 hPa 0,0 l/m 0,0 km/h (0 Bft) NO 41 0 min 0,000 mm 0,0 UV-I 19 W/m 12,1 C 17,2 C 0,0 km/h (0 Bft) 0,00 %
19.08.2015 19:29 17,2 C 72 % 1018,1 hPa 0,0 l/m 0,0 km/h (0 Bft) NO 48 0 min 0,000 mm 0,0 UV-I 17 W/m 12,1 C 17,2 C 0,0 km/h (0 Bft) 0,00 %
19.08.2015 19:34 17,1 C 72 % 1018,2 hPa 0,0 l/m 0,0 km/h (0 Bft) SO 128 0 min 0,000 mm 0,0 UV-I 11 W/m 12,0 C 17,1 C 0,0 km/h (0 Bft) 0,00 %
19.08.2015 19:39 17,1 C 72 % 1018,2 hPa 0,0 l/m 1,4 km/h (1 Bft) N 352 0 min 0,000 mm 0,0 UV-I 4 W/m 12,0 C 17,1 C 4,0 km/h (1 Bft) 0,00 %
19.08.2015 19:44 17,1 C 72 % 1018,3 hPa 0,0 l/m 4,0 km/h (1 Bft) N 11 0 min 0,000 mm 0,0 UV-I 0 W/m 12,0 C 17,1 C 4,0 km/h (1 Bft) 0,00 %
19.08.2015 19:49 17,0 C 73 % 1018,4 hPa 0,0 l/m 1,8 km/h (1 Bft) N 350 0 min 0,000 mm 0,0 UV-I 0 W/m 12,1 C 17,0 C 4,0 km/h (1 Bft) 0,00 %
19.08.2015 19:54 16,9 C 74 % 1018,5 hPa 0,0 l/m 0,4 km/h (0 Bft) N 357 0 min 0,000 mm 0,0 UV-I 0 W/m 12,2 C 16,9 C 4,0 km/h (1 Bft) 0,00 %
19.08.2015 19:59 16,6 C 77 % 1018,6 hPa 0,0 l/m 0,0 km/h (0 Bft) O 79 0 min 0,000 mm 0,0 UV-I 0 W/m 12,5 C 16,6 C 0,0 km/h (0 Bft) 0,00 %
19.08.2015 20:04 16,4 C 80 % 1018,7 hPa 0,0 l/m 0,0 km/h (0 Bft) W-NW 290 0 min 0,000 mm 0,0 UV-I 0 W/m 12,9 C 16,4 C 0,0 km/h (0 Bft) 0,00 %
19.08.2015 20:09 16,2 C 82 % 1018,6 hPa 0,0 l/m 0,0 km/h (0 Bft) NO 45 0 min 0,000 mm 0,0 UV-I 0 W/m 13,1 C 16,2 C 0,0 km/h (0 Bft) 0,00 %
19.08.2015 20:14 15,9 C 85 % 1018,8 hPa 0,0 l/m 0,0 km/h (0 Bft) N-NW 330 0 min 0,000 mm 0,0 UV-I 0 W/m 13,4 C 15,9 C 0,0 km/h (0 Bft) 0,00 %
19.08.2015 20:19 15,7 C 87 % 1018,8 hPa 0,0 l/m 0,0 km/h (0 Bft) N-NO 24 0 min 0,000 mm 0,0 UV-I 0 W/m 13,5 C 15,7 C 0,0 km/h (0 Bft) 0,00 %
19.08.2015 20:24 15,5 C 88 % 1018,9 hPa 0,0 l/m 0,4 km/h (0 Bft) W-NW 298 0 min 0,000 mm 0,0 UV-I 0 W/m 13,5 C 15,5 C 4,0 km/h (1 Bft) 0,00 %
19.08.2015 20:29 15,4 C 89 % 1018,9 hPa 0,0 l/m 0,0 km/h (0 Bft) NO 36 0 min 0,000 mm 0,0 UV-I 0 W/m 13,6 C 15,4 C 0,0 km/h (0 Bft) 0,00 %
19.08.2015 20:34 15,3 C 89 % 1018,9 hPa 0,0 l/m 0,0 km/h (0 Bft) W-SW 256 0 min 0,000 mm 0,0 UV-I 0 W/m 13,5 C 15,3 C 0,0 km/h (0 Bft) 0,00 %
19.08.2015 20:39 15,3 C 90 % 1019,0 hPa 0,3 l/m 0,0 km/h (0 Bft) N 357 0 min 0,000 mm 0,0 UV-I 0 W/m 13,7 C 15,3 C 0,0 km/h (0 Bft) 0,00 %
19.08.2015 20:44 15,2 C 91 % 1018,9 hPa 0,3 l/m 0,0 km/h (0 Bft) NO 41 0 min 0,000 mm 0,0 UV-I 0 W/m 13,7 C 15,2 C 0,0 km/h (0 Bft) 0,00 %
19.08.2015 20:49 15,1 C 91 % 1019,1 hPa 0,0 l/m 0,0 km/h (0 Bft) N-NW 347 0 min 0,000 mm 0,0 UV-I 0 W/m 13,6 C 15,1 C 0,0 km/h (0 Bft) 0,00 %
19.08.2015 20:54 15,0 C 92 % 1019,0 hPa 0,3 l/m 0,0 km/h (0 Bft) NO 41 0 min 0,000 mm 0,0 UV-I 0 W/m 13,7 C 15,0 C 0,0 km/h (0 Bft) 0,00 %
19.08.2015 20:59 14,9 C 93 % 1019,3 hPa 0,0 l/m 0,0 km/h (0 Bft) NO 40 0 min 0,000 mm 0,0 UV-I 0 W/m 13,8 C 14,9 C 0,0 km/h (0 Bft) 0,00 %
19.08.2015 21:04 14,9 C 93 % 1019,3 hPa 0,0 l/m 0,0 km/h (0 Bft) W-NW 302 0 min 0,000 mm 0,0 UV-I 0 W/m 13,8 C 14,9 C 0,0 km/h (0 Bft) 0,00 %
19.08.2015 21:09 14,8 C 94 % 1019,2 hPa 0,3 l/m 0,0 km/h (0 Bft) N 351 0 min 0,000 mm 0,0 UV-I 0 W/m 13,8 C 14,8 C 0,0 km/h (0 Bft) 0,00 %
19.08.2015 21:14 14,8 C 94 % 1019,2 hPa 0,0 l/m 0,0 km/h (0 Bft) NO 50 0 min 0,000 mm 0,0 UV-I 0 W/m 13,8 C 14,8 C 0,0 km/h (0 Bft) 0,00 %
19.08.2015 21:19 14,8 C 94 % 1019,2 hPa 0,3 l/m 0,0 km/h (0 Bft) O-NO 69 0 min 0,000 mm 0,0 UV-I 0 W/m 13,8 C 14,8 C 0,0 km/h (0 Bft) 0,00 %
19.08.2015 21:24 14,7 C 95 % 1019,3 hPa 0,0 l/m 0,0 km/h (0 Bft) NO 38 0 min 0,000 mm 0,0 UV-I 0 W/m 13,9 C 14,7 C 0,0 km/h (0 Bft) 0,00 %
19.08.2015 21:29 14,7 C 95 % 1019,3 hPa 0,6 l/m 0,0 km/h (0 Bft) N 357 0 min 0,000 mm 0,0 UV-I 0 W/m 13,9 C 14,7 C 0,0 km/h (0 Bft) 0,00 %
19.08.2015 21:34 14,7 C 95 % 1019,3 hPa 0,3 l/m 0,0 km/h (0 Bft) NO 43 0 min 0,000 mm 0,0 UV-I 0 W/m 13,9 C 14,7 C 0,0 km/h (0 Bft) 0,00 %
19.08.2015 21:39 14,7 C 95 % 1019,2 hPa 0,0 l/m 0,0 km/h (0 Bft) NO 34 0 min 0,000 mm 0,0 UV-I 0 W/m 13,9 C 14,7 C 0,0 km/h (0 Bft) 0,00 %
19.08.2015 21:44 14,7 C 95 % 1019,6 hPa 0,3 l/m 0,0 km/h (0 Bft) W-SW 256 0 min 0,000 mm 0,0 UV-I 0 W/m 13,9 C 14,7 C 0,0 km/h (0 Bft) 0,00 %
19.08.2015 21:49 14,7 C 96 % 1019,2 hPa 0,0 l/m 0,0 km/h (0 Bft) N-NO 27 0 min 0,000 mm 0,0 UV-I 0 W/m 14,1 C 14,7 C 0,0 km/h (0 Bft) 0,00 %
19.08.2015 21:55 14,6 C 96 % 1019,3 hPa 0,0 l/m 0,0 km/h (0 Bft) O-NO 75 0 min 0,000 mm 0,0 UV-I 0 W/m 14,0 C 14,6 C 0,0 km/h (0 Bft) 0,00 %
19.08.2015 22:00 14,6 C 96 % 1019,4 hPa 0,0 l/m 0,0 km/h (0 Bft) NO 36 0 min 0,000 mm 0,0 UV-I 0 W/m 14,0 C 14,6 C 0,0 km/h (0 Bft) 0,00 %
19.08.2015 22:05 14,5 C 96 % 1019,2 hPa 0,3 l/m 0,0 km/h (0 Bft) NO 40 0 min 0,000 mm 0,0 UV-I 0 W/m 13,9 C 14,5 C 0,0 km/h (0 Bft) 0,00 %
19.08.2015 22:10 14,4 C 96 % 1019,4 hPa 0,0 l/m 0,4 km/h (0 Bft) N-NW 341 0 min 0,000 mm 0,0 UV-I 0 W/m 13,8 C 14,4 C 4,0 km/h (1 Bft) 0,00 %
19.08.2015 22:15 14,4 C 96 % 1019,5 hPa 0,0 l/m 0,0 km/h (0 Bft) N-NW 331 0 min 0,000 mm 0,0 UV-I 0 W/m 13,8 C 14,4 C 0,0 km/h (0 Bft) 0,00 %
19.08.2015 22:20 14,4 C 96 % 1019,5 hPa 0,3 l/m 0,4 km/h (0 Bft) N-NW 330 0 min 0,000 mm 0,0 UV-I 0 W/m 13,8 C 14,4 C 4,0 km/h (1 Bft) 0,00 %
19.08.2015 22:25 14,4 C 96 % 1019,7 hPa 0,0 l/m 0,0 km/h (0 Bft) NO 36 0 min 0,000 mm 0,0 UV-I 0 W/m 13,8 C 14,4 C 0,0 km/h (0 Bft) 0,00 %
19.08.2015 22:30 14,4 C 97 % 1019,8 hPa 0,0 l/m 0,0 km/h (0 Bft) W-NW 300 0 min 0,000 mm 0,0 UV-I 0 W/m 13,9 C 14,4 C 0,0 km/h (0 Bft) 0,00 %
19.08.2015 22:35 14,4 C 97 % 1019,6 hPa 0,0 l/m 0,0 km/h (0 Bft) N 356 0 min 0,000 mm 0,0 UV-I 0 W/m 13,9 C 14,4 C 0,0 km/h (0 Bft) 0,00 %
19.08.2015 22:40 14,3 C 97 % 1019,6 hPa 0,0 l/m 0,0 km/h (0 Bft) N-NO 28 0 min 0,000 mm 0,0 UV-I 0 W/m 13,8 C 14,3 C 0,0 km/h (0 Bft) 0,00 %
19.08.2015 22:45 14,3 C 97 % 1019,9 hPa 0,3 l/m 0,0 km/h (0 Bft) N 4 0 min 0,000 mm 0,0 UV-I 0 W/m 13,8 C 14,3 C 0,0 km/h (0 Bft) 0,00 %
19.08.2015 22:50 14,3 C 97 % 1019,8 hPa 0,0 l/m 0,0 km/h (0 Bft) NO 47 0 min 0,000 mm 0,0 UV-I 0 W/m 13,8 C 14,3 C 0,0 km/h (0 Bft) 0,00 %
19.08.2015 22:55 14,2 C 97 % 1019,8 hPa 0,0 l/m 0,0 km/h (0 Bft) NO 36 0 min 0,000 mm 0,0 UV-I 0 W/m 13,7 C 14,2 C 0,0 km/h (0 Bft) 0,00 %
19.08.2015 23:00 14,2 C 97 % 1019,6 hPa 0,0 l/m 0,0 km/h (0 Bft) NO 36 0 min 0,000 mm 0,0 UV-I 0 W/m 13,7 C 14,2 C 0,0 km/h (0 Bft) 0,00 %
19.08.2015 23:05 14,1 C 97 % 1019,5 hPa 0,0 l/m 0,0 km/h (0 Bft) NO 46 0 min 0,000 mm 0,0 UV-I 0 W/m 13,6 C 14,1 C 0,0 km/h (0 Bft) 0,00 %
19.08.2015 23:10 14,1 C 97 % 1019,7 hPa 0,0 l/m 0,0 km/h (0 Bft) N-NO 28 0 min 0,000 mm 0,0 UV-I 0 W/m 13,6 C 14,1 C 0,0 km/h (0 Bft) 0,00 %
19.08.2015 23:15 14,1 C 97 % 1019,8 hPa 0,0 l/m 0,0 km/h (0 Bft) O-NO 62 0 min 0,000 mm 0,0 UV-I 0 W/m 13,6 C 14,1 C 0,0 km/h (0 Bft) 0,00 %
19.08.2015 23:20 14,1 C 97 % 1019,7 hPa 0,0 l/m 0,0 km/h (0 Bft) N-NW 344 0 min 0,000 mm 0,0 UV-I 0 W/m 13,6 C 14,1 C 0,0 km/h (0 Bft) 0,00 %
19.08.2015 23:25 14,1 C 97 % 1019,8 hPa 0,3 l/m 0,4 km/h (0 Bft) N 354 0 min 0,000 mm 0,0 UV-I 0 W/m 13,6 C 14,1 C 4,0 km/h (1 Bft) 0,00 %
19.08.2015 23:30 14,1 C 97 % 1019,8 hPa 0,0 l/m 1,4 km/h (1 Bft) N 352 0 min 0,000 mm 0,0 UV-I 0 W/m 13,6 C 14,1 C 4,0 km/h (1 Bft) 0,00 %
19.08.2015 23:35 14,0 C 97 % 1019,8 hPa 0,0 l/m 0,0 km/h (0 Bft) NO 46 0 min 0,000 mm 0,0 UV-I 0 W/m 13,5 C 14,0 C 0,0 km/h (0 Bft) 0,00 %
19.08.2015 23:40 14,0 C 97 % 1019,7 hPa 0,0 l/m 0,0 km/h (0 Bft) N 351 0 min 0,000 mm 0,0 UV-I 0 W/m 13,5 C 14,0 C 0,0 km/h (0 Bft) 0,00 %
19.08.2015 23:45 14,0 C 97 % 1019,7 hPa 0,3 l/m 1,4 km/h (1 Bft) O 85 0 min 0,000 mm 0,0 UV-I 0 W/m 13,5 C 14,0 C 4,0 km/h (1 Bft) 0,00 %
19.08.2015 23:50 14,0 C 97 % 1019,8 hPa 0,0 l/m 0,0 km/h (0 Bft) N-NO 29 0 min 0,000 mm 0,0 UV-I 0 W/m 13,5 C 14,0 C 0,0 km/h (0 Bft) 0,00 %
19.08.2015 23:55 14,1 C 97 % 1019,9 hPa 0,0 l/m 0,0 km/h (0 Bft) N-NO 30 0 min 0,000 mm 0,0 UV-I 0 W/m 13,6 C 14,1 C 0,0 km/h (0 Bft) 0,00 %
_ Min-Zeit 04:38 14:14 05:49 - 00:03 - - - - - - 13:14 04:38 00:03 00:03
Minimum _ 9,9 C 40 % 1015,8 hPa - 0,0 km/h (0 Bft) - - - - - - 9,2 C 9,9 C 0,0 km/h (0 Bft) 0,00 %
_ Max-Zeit 14:14 04:18 22:45 21:29 18:09 - - 06:19 00:03 11:34 12:04 21:49 14:14 14:29 00:03
Maximum _ 23,8 C 99 % 1019,9 hPa 0,6 l/m 6,5 km/h
W (2 Bft)
- - 5 min 0,000 mm 3,0 UV-I 811 W/m 14,1 C 23,8 C 7,9 km/h
W-NW (2 Bft)
0,00 %
Durchschnitt _ 16,1 C 76 % 1017,2 hPa #4,2 l/m 0,3 km/h (0 Bft) N - #4:35 h #0,000 mm 1,7 UV-I 265 W/m 11,2 C 16,1 C 0,7 km/h (0 Bft) 0,00 %